www.pogodaiklimat.ru

Погода и климат >> Архив погоды >> Финляндия >> Муонио Лаукукеро


ПОГОДА в Муонио Лаукукеро

  • Прогноз погоды в Муонио Лаукукеро
  • Монитор погоды в Муонио Лаукукеро

АРХИВ ПОГОДЫ в Муонио Лаукукеро

Время (UTC), дата Ветер
(напр.,м/с)
 
Видим.   Явления Облачность Т
(С)
Тd
(С)
f
(%)
Тe
(С)
Тes
(С)
Комфортность P
(гПа)
Po
(гПа)
Тmin
(С)
Tmax
(С)
R
(мм)
R24
(мм)
S
(см)
22 17.03 В 24 н/о н/о -10.3 -11.4 92 -25 -25 1002.0 907.7
23 17.03 В 24-26
{27}
н/о н/о -10.3 -11.5 91 -25 -25 1002.0 907.6
00 18.03 В 23-25
{26}
н/о н/о -10.3 -11.5 91 -25 -25 1001.6 907.3
01 18.03 В 24 н/о н/о -10.1 -11.2 92 -25 -25 1001.4 907.1
02 18.03 В 26-28
{29}
н/о н/о -10.0 -11.1 92 -25 -25 1000.2 906.1
03 18.03 В 26-28
{29}
н/о н/о -9.7 -10.7 92 -25 -25 999.8 905.8
04 18.03 В 25 н/о н/о -9.4 -10.5 92 -24 -24 999.5 905.6
05 18.03 В 25 н/о н/о -9.4 -10.4 92 -24 -24 999.3 905.5
06 18.03 В 23-26
{28}
н/о н/о -9.4 -10.5 92 -24 -24 999.6 905.7 -10.5 -9.3
07 18.03 В 24-25
{26}
н/о н/о -9.2 -10.3 92 -24 -24 999.4 905.6
08 18.03 В 21 н/о н/о -9.0 -10.0 92 -23 -23 999.6 905.9
09 18.03 В 21-23
{25}
н/о н/о -8.6 -9.6 92 -22 -22 999.0 905.5
10 18.03 В 20 н/о н/о -8.3 -9.2 93 -22 -22 999.4 906.0
11 18.03 В 20 н/о н/о -7.9 -8.8 93 -21 -21 999.3 906.0
12 18.03 В 18-21
{22}
н/о н/о -7.5 -8.4 93 -20 -20 999.4 906.2
13 18.03 В 17 н/о н/о -7.2 -8.1 93 -20 -20 999.6 906.5
14 18.03 СВ 15 н/о н/о -7.2 -8.0 94 -19 -19 999.4 906.3
15 18.03 СВ 15-17
{18}
н/о н/о -7.1 -7.9 94 -19 -19 999.8 906.7
16 18.03 СВ 14 н/о н/о -7.1 -7.9 94 -19 -19 1000.4 907.3
17 18.03 СВ 13 н/о н/о -7.1 -7.9 94 -18 -18 1001.0 907.8
18 18.03 СВ 13-15
{15}
н/о н/о -7.2 -8.1 93 -19 -19 1001.8 908.5 -9.5 -7.1
19 18.03 СВ 12-13
{14}
н/о н/о -7.2 -8.1 93 -18 -18 1002.4 909.0
20 18.03 СВ 12 н/о н/о -7.4 -8.2 94 -18 -18 1002.9 909.5
21 18.03 СВ 13-15
{15}
н/о н/о -7.4 -8.3 93 -19 -19 1003.6 910.0
22 18.03 СВ 15 н/о н/о -7.6 -8.4 94 -20 -20 1004.0 910.3
23 18.03 С 15-17
{17}
н/о н/о -7.6 -8.4 94 -20 -20 1004.4 910.7
00 19.03 С 15-18
{18}
н/о н/о -8.0 -8.8 94 -20 -20 1005.0 911.2
01 19.03 С 16-17
{18}
н/о н/о -7.7 -8.6 93 -20 -20 1005.6 911.7
02 19.03 С 16 н/о н/о -7.4 -8.2 94 -20 -20 1006.4 912.6
03 19.03 СВ 16-18
{18}
н/о н/о -7.7 -8.5 94 -20 -20 1007.5 913.5
04 19.03 С 15 н/о н/о -7.6 -8.5 93 -20 -20 1008.4 914.3
05 19.03 СВ 16 н/о н/о -7.4 -8.2 94 -20 -20 1009.1 915.1
06 19.03 С 13-15
{17}
н/о н/о -7.4 -8.2 94 -19 -19 1011.0 916.8 -8.0 -7.2
07 19.03 С 11-11
{14}
н/о н/о -7.3 -8.1 94 -18 -18 1011.6 917.4
08 19.03 С 7 н/о н/о -7.2 -8.1 93 -16 -16 1012.5 918.2
09 19.03 С 5-6
{8}
н/о н/о -7.0 -7.9 93 -15 -15 1013.1 918.8
10 19.03 С 3 н/о н/о -6.1 -6.9 94 -12 -12 1013.1 919.1
11 19.03 СЗ 5 н/о н/о -7.2 -8.1 93 -15 -15 1013.9 919.5
12 19.03 С 3-4
{7}
н/о н/о -6.8 -7.6 94 -13 -13 1014.2 919.9
13 19.03 СЗ 6 н/о н/о -6.9 -7.7 94 -15 -15 1014.4 920.0
14 19.03 СЗ 6 н/о н/о -7.1 -8.0 93 -15 -15 1014.6 920.2
15 19.03 З 4-6
{6}
н/о н/о -7.2 -8.0 94 -14 -14 1015.0 920.5
16 19.03 З 6 н/о н/о -7.5 -8.3 94 -16 -16 1014.9 920.3
17 19.03 З 5 н/о н/о -8.1 -9.0 93 -16 -16 1014.9 920.0
18 19.03 З 5-6
{7}
н/о н/о -8.2 -9.1 93 -16 -16 1014.6 919.8 -8.5 -5.0
19 19.03 З 7 н/о н/о -8.9 -9.8 93 -18 -18 1014.6 919.6
20 19.03 З 7-7
{7}
н/о н/о -8.2 -9.1 93 -17 -17 1014.4 919.5
21 19.03 ЮЗ 7-8
{8}
н/о н/о -8.4 -9.3 93 -17 -17 1013.7 918.9
22 19.03 ЮЗ 8-9
{9}
н/о н/о -8.4 -9.3 93 -18 -18 1013.1 918.4
23 19.03 ЮЗ 8 н/о н/о -8.5 -9.4 93 -18 -18 1012.6 917.8
00 20.03 ЮЗ 8-10
{11}
н/о н/о -8.4 -9.4 92 -18 -18 1011.5 916.9
01 20.03 ЮЗ 9 н/о н/о -8.1 -9.0 93 -18 -18 1010.8 916.3
02 20.03 ЮЗ 10-14
{14}
н/о н/о -8.5 -9.5 92 -19 -19 1010.1 915.6
03 20.03 ЮЗ 11-14
{14}
н/о н/о -8.5 -9.6 92 -19 -19 1008.8 914.4
04 20.03 ЮЗ 13 н/о н/о -8.5 -9.7 91 -20 -20 1007.8 913.5
05 20.03 ЮЗ 13 н/о н/о -8.2 -9.5 90 -20 -20 1006.9 912.8
06 20.03 Ю 12-15
{16}
н/о н/о -8.5 -9.7 91 -20 -20 1005.8 911.7 -9.0 -7.9
07 20.03 Ю 12-15
{15}
н/о н/о -8.4 -9.4 92 -20 -20 1005.2 911.2
08 20.03 Ю 12-15
{17}
н/о н/о -7.9 -9.0 92 -19 -19 1004.6 910.8
09 20.03 Ю 12-15
{16}
н/о н/о -7.6 -8.6 93 -19 -19 1004.1 910.5
10 20.03 Ю 12-14
{15}
н/о н/о -7.0 -7.8 94 -18 -18 1003.8 910.3
11 20.03 Ю 11 н/о н/о -6.9 -7.8 93 -17 -17 1003.7 910.3
12 20.03 ЮЗ 12-15
{15}
н/о н/о -6.8 -7.6 94 -18 -18 1003.5 910.2
13 20.03 ЮЗ 10-13
{14}
н/о н/о -6.6 -7.4 94 -17 -17 1003.6 910.3
14 20.03 ЮЗ 11 н/о н/о -6.7 -7.5 94 -17 -17 1003.6 910.3
15 20.03 ЮЗ 10-11
{13}
н/о н/о -6.7 -7.5 94 -17 -17 1004.0 910.6
16 20.03 ЮЗ 8 н/о н/о -6.8 -7.6 94 -16 -16 1004.5 911.1
17 20.03 ЮЗ 6 н/о н/о -7.0 -7.7 95 -15 -15 1004.9 911.4
18 20.03 З 9-9
{11}
н/о н/о -7.2 -8.0 94 -17 -17 1004.8 911.2 -8.6 -6.5
19 20.03 З 8 н/о н/о -7.1 -7.9 94 -16 -16 1004.8 911.3
20 20.03 З 10 н/о н/о -7.1 -7.8 95 -17 -17 1004.7 911.2
21 20.03 З 13-14
{14}
н/о н/о -6.6 -7.3 95 -18 -18 1004.6 911.2
22 20.03 З 11 н/о н/о -5.6 -6.3 95 -16 -16 1004.3 911.3
23 20.03 З 11 н/о н/о -5.0 -5.6 96 -15 -15 1004.3 911.5
00 21.03 З 12-13
{14}
н/о н/о -5.5 -6.2 95 -16 -16 1004.3 911.3
01 21.03 З 13 н/о н/о -4.7 -5.2 96 -15 -15 1003.6 910.9
02 21.03 З 12-13
{14}
н/о н/о -5.4 -6.0 96 -16 -16 1003.9 911.0
03 21.03 З 9-10
{12}
н/о н/о -6.5 -7.3 94 -16 -16 1004.1 910.8
04 21.03 З 8 н/о н/о -7.1 -7.9 94 -16 -16 1004.4 910.9
05 21.03 З 9 н/о н/о -6.6 -7.3 95 -16 -16 1003.9 910.6
06 21.03 З 7-10
{10}
н/о н/о -6.6 -7.3 95 -15 -15 1003.8 910.5 -7.9 -4.5
07 21.03 З 6 н/о н/о -5.1 -5.7 96 -13 -13 1003.1 910.4
08 21.03 З 5-6
{8}
н/о н/о -4.5 -5.1 96 -12 -12 1002.6 910.1
09 21.03 ЮЗ 4-6
{7}
н/о н/о -6.7 -7.5 94 -13 -13 1003.3 910.0
10 21.03 З 8 н/о н/о -6.1 -6.9 94 -15 -15 1002.6 909.6
11 21.03 З 8 н/о н/о -4.5 -5.1 96 -13 -13 1001.1 908.7
12 21.03 Ю 4-5
{7}
н/о н/о -5.4 -6.2 94 -12 -12 1000.4 907.8
13 21.03 ЮВ 5 н/о н/о -5.6 -6.3 95 -13 -13 999.5 906.9
14 21.03 ЮВ 7-8
{8}
н/о н/о -5.6 -6.3 95 -14 -14 998.7 906.2
15 21.03 ЮВ 9-11
{11}
н/о н/о -5.7 -6.4 95 -15 -15 997.7 905.3
18 21.03 ЮЗ 4-5
{6}
н/о н/о -5.0 -5.5 96 -12 -12 997.4 905.3 -7.0 -4.3
19 21.03 СЗ 10-11
{11}
н/о н/о -5.3 -5.9 96 -15 -15 998.5 906.1
20 21.03 СЗ 16-19
{19}
н/о н/о -5.6 -6.3 95 -17 -17 999.7 907.2
21 21.03 СЗ 21-25
{26}
н/о н/о -5.6 -6.2 96 -19 -19 1001.3 908.6
22 21.03 СЗ 20-28
{28}
н/о н/о -5.7 -6.3 96 -19 -19 1003.4 910.4
23 21.03 СЗ 18 н/о н/о -5.9 -6.5 96 -18 -18 1005.7 912.5
00 22.03 СЗ 17-20
{21}
н/о н/о -6.6 -7.4 94 -19 -19 1008.1 914.4
01 22.03 СЗ 17-18
{19}
н/о н/о -7.5 -8.4 93 -20 -20 1010.1 915.9
02 22.03 СЗ 14 н/о н/о -7.9 -8.7 94 -20 -20 1012.2 917.7
03 22.03 СЗ 15-17
{18}
н/о н/о -8.4 -9.3 93 -21 -21 1013.4 918.6
04 22.03 СЗ 14 н/о н/о -8.3 -9.2 93 -20 -20 1014.4 919.5
05 22.03 З 14 н/о н/о -8.8 -9.8 92 -21 -21 1015.8 920.7
06 22.03 З 13-17
{17}
н/о н/о -8.5 -9.5 92 -20 -20 1016.4 921.3 -9.0 -4.9
07 22.03 З 13 н/о н/о -8.5 -9.5 92 -20 -20 1017.0 921.8
08 22.03 З 15-16
{18}
н/о н/о -7.8 -8.8 93 -20 -20 1017.2 922.2
09 22.03 З 15-17
{18}
н/о н/о -7.0 -7.9 93 -19 -19 1017.4 922.7
10 22.03 З 14-17
{17}
н/о н/о -6.3 -7.3 93 -18 -18 1017.4 923.0
11 22.03 З 15 н/о н/о -5.9 -7.1 91 -17 -17 1017.0 922.8
12 22.03 З 14-17
{17}
н/о н/о -4.7 -6.4 88 -16 -16 1016.8 922.9
13 22.03 З 14-17
{19}
н/о н/о -4.1 -7.5 77 -15 -15 1016.3 922.7
14 22.03 ЮЗ 15 н/о н/о -3.7 -9.5 64 -14 -14 1015.9 922.5
15 22.03 ЮЗ 11-15
{16}
н/о н/о -3.9 -9.9 63 -13 -13 1015.3 921.9
16 22.03 ЮЗ 14 н/о н/о -4.3 -9.7 66 -15 -15 1014.1 920.6
17 22.03 ЮЗ 15 н/о н/о -4.5 -9.9 66 -15 -15 1012.5 919.1
18 22.03 Ю 15-19
{21}
н/о н/о -5.1 -10.2 67 -16 -16 1010.7 917.3 -8.8 -3.4
19 22.03 Ю 16-20
{22}
н/о н/о -5.2 -10.2 68 -16 -16 1008.7 915.4
20 22.03 Ю 18-22
{24}
н/о н/о -5.4 -9.7 72 -17 -17 1007.4 914.2
21 22.03 ЮЗ 18-23
{23}
н/о н/о -5.6 -8.4 81 -18 -18 1005.1 912.0
22 22.03 ЮЗ 19 н/о н/о -5.2 -5.8 96 -18 -18 1003.5 910.7
23 22.03 ЮЗ 17-22
{23}
н/о н/о -5.2 -5.8 96 -17 -17 1001.3 908.7
00 23.03 ЮЗ 17-21
{24}
н/о н/о -5.1 -5.7 96 -17 -17 999.8 907.3
01 23.03 ЮЗ 18 н/о н/о -5.1 -5.6 96 -17 -17 998.4 906.1
02 23.03 ЮЗ 15 н/о н/о -4.8 -5.4 96 -16 -16 997.5 905.4
03 23.03 ЮЗ 14-18
{18}
н/о н/о -4.4 -4.9 96 -15 -15 996.2 904.3
04 23.03 ЮЗ 12-16
{18}
н/о н/о -4.3 -4.8 96 -15 -15 994.9 903.2
05 23.03 ЮЗ 12-14
{16}
н/о н/о -4.2 -4.7 96 -15 -15 994.2 902.6
06 23.03 ЮЗ 11 н/о н/о -4.1 -4.6 96 -14 -14 992.0 900.6 -5.7 -4.1
07 23.03 ЮЗ 11-15
{16}
н/о н/о -4.0 -4.5 96 -14 -14 991.4 900.1
08 23.03 ЮЗ 12 н/о н/о -4.0 -4.5 96 -14 -14 989.9 898.8
09 23.03 ЮЗ 11-14
{15}
н/о н/о -3.5 -3.9 97 -13 -13 988.6 897.7
10 23.03 ЮЗ 14 н/о н/о -3.0 -3.4 97 -14 -14 987.5 896.9
11 23.03 ЮЗ 15-18
{18}
н/о н/о -2.7 -3.0 98 -13 -13 986.4 896.0
12 23.03 ЮЗ 14-17
{19}
н/о н/о -2.0 -2.3 98 -12 -12 985.5 895.4
13 23.03 З 17 н/о н/о -2.0 -2.2 99 -13 -13 985.1 895.0
14 23.03 З 17-20
{22}
н/о н/о -2.7 -3.0 98 -14 -14 984.8 894.6
15 23.03 З 16-20
{25}
н/о н/о -3.0 -3.3 98 -14 -14 984.5 894.2
16 23.03 штиль 0-25
{25}
н/о н/о -3.2 -3.6 97 -4 -4 984.1 893.7
17 23.03 ЮЗ 16-19
{25}
н/о н/о -4.1 -4.7 96 -16 -16 984.2 893.5
18 23.03 ЮЗ 15-19
{19}
н/о н/о -4.2 -4.8 96 -15 -15 983.9 893.2 -4.4 -1.6
19 23.03 ЮЗ 15-18
{19}
н/о н/о -4.5 -5.7 91 -16 -16 982.9 892.2
20 23.03 ЮЗ 14-17
{19}
н/о н/о -4.7 -6.4 88 -16 -16 982.1 891.4
21 23.03 ЮЗ 13-16
{17}
н/о н/о -4.8 -6.4 89 -15 -15 981.2 890.6
22 23.03 ЮЗ 12-17
{17}
н/о н/о -4.9 -6.5 89 -15 -15 980.2 889.6
23 23.03 ЮЗ 13 н/о н/о -4.9 -6.8 87 -16 -16 978.9 888.5
00 24.03 ЮЗ 13-15
{17}
н/о н/о -4.7 -6.5 87 -15 -15 977.8 887.5
01 24.03 ЮЗ 10 н/о н/о -4.8 -6.0 91 -14 -14 977.7 887.5
02 24.03 Ю 7-9
{10}
н/о н/о -4.6 -5.1 96 -13 -13 977.3 887.2
03 24.03 ЮЗ 8-9
{10}
н/о н/о -4.2 -4.6 97 -13 -13 977.3 887.2
04 24.03 З 7-8
{9}
н/о н/о -4.0 -4.4 97 -12 -12 977.5 887.5
05 24.03 З 7-8
{10}
н/о н/о -4.1 -4.6 96 -12 -12 978.1 888.0
06 24.03 СЗ 6-8
{10}
н/о н/о -4.1 -4.6 96 -12 -12 979.6 889.4 -5.0 -3.9
07 24.03 СЗ 8-11
{11}
н/о н/о -4.1 -4.6 96 -13 -13 980.9 890.5
08 24.03 СЗ 10 н/о н/о -4.6 -5.1 96 -14 -14 982.5 891.9
09 24.03 СЗ 12-14
{14}
н/о н/о -4.1 -4.6 96 -14 -14 984.0 893.4
10 24.03 СЗ 11 н/о н/о -4.8 -5.5 95 -15 -15 985.6 894.6
11 24.03 СЗ 11 н/о н/о -4.8 -5.4 96 -15 -15 986.8 895.7
12 24.03 СЗ 9-11
{14}
н/о н/о -3.5 -4.1 96 -13 -13 987.8 897.0
13 24.03 СЗ 10-13
{14}
н/о н/о -3.5 -4.8 91 -13 -13 988.5 897.6
14 24.03 СЗ 11 н/о н/о -3.0 -4.8 87 -12 -12 989.3 898.5
15 24.03 СЗ 11-13
{15}
н/о н/о -2.8 -3.6 94 -12 -12 990.6 899.8
16 24.03 СЗ 11 н/о н/о -3.2 -3.5 98 -13 -13 991.7 900.6
17 24.03 СЗ 15 н/о н/о -3.7 -4.1 97 -15 -15 992.8 901.5
18 24.03 СЗ 15-19
{19}
н/о н/о -4.8 -5.7 93 -16 -16 994.2 902.4 -5.0 -2.7
19 24.03 СЗ 16-19
{19}
н/о н/о -5.5 -6.5 93 -17 -17 994.7 902.6
20 24.03 С 14-17
{19}
н/о н/о -6.0 -7.4 90 -17 -17 995.9 903.6
21 24.03 СЗ 11-13
{15}
н/о н/о -6.7 -7.9 91 -17 -17 997.4 904.6
22 24.03 С 12-15
{16}
н/о н/о -6.9 -8.0 92 -18 -18 997.9 905.1

 

Местоположение метеостанции Муонио Лаукукеро (Финляндия): широта 68.06 долгота 24.03 высота над уровнем моря 760 м.

В архиве по умолчанию представлена погода в Муонио Лаукукеро за последнюю неделю. Архивные данные за месяц целиком и за предыдущие месяцы, начиная с января 2011 года, Вы можете получить, выбрав интересующий диапазон дат из раскрывающегося списка и нажав кнопку "Ввод!".


*Определитесь, кто Вы:
робот инопланетянин человек

Внимание! Время в таблицах - всемирное. Для получения местного времени необходимо прибавить поправку, которая равна 1 ч.

Смотрите также архив погоды в соседних городах и на ближайших метеорологических станциях:

Погода в Киттиля Ломполонвуома (Финляндия) (10 км)
Погода в Муонио Саммалтунтури (Финляндия) (11 км)
Погода в Киттила Маторова (Финляндия) (11 км)
Погода в Киттила Кенттарова (Финляндия) (12 км)
Погода в Муонио Аламуонио (Финляндия) (17 км)
Погода в Киттила Левитунтури (Финляндия) (46 км)
Погода в Киттиля (Финляндия) (53 км)
Погода в Киттиля (Финляндия) (58 км)
Погода в Паркаломполо (Швеция) (62 км)
Погода в Наккала (Финляндия) (63 км)

Пояснения к столбцам:

Ветер - указаны скорость ветра в м/с - средняя за 10 мин, порывы в срок и между сроками (в фигурных скобках) и направление, откуда дует ветер: С - северный, СВ - северо-восточный, В - восточный, ЮВ - юго-восточный, Ю - южный, ЮЗ - юго-западный, З - западный, СЗ - северо-западный.
Видимость - горизонтальная дальность видимости в метрах или километрах. При видимости от 1 до 10 км при отсутствии осадков обычно наблюдается дымка, при ухудшении видимости до 1 км и менее - туман. В сухую погоду видимость может ухудшаться дымом, пылью или мглою.
Явления - указаны атмосферные явления, наблюдавшиеся в срок или в последний час перед сроком; фигурными скобками обозначены явления, наблюдавшиеся между сроками (за 1-3 часа до срока); квадратными скобками обозначены град или гололедные отложения с указанием их диаметра в мм.
Облачность - указаны через наклонную черту общая и нижняя облачность в баллах и высота нижней границы облаков в метрах; квадратными скобками обозначены формы облаков: Ci - перистые, Cs - перисто-слоистые, Cc - перисто-кучевые, Ac - высококучевые, As - высокослоистые, Sc - слоисто-кучевые, Ns - слоисто-дождевые, Cu - кучевые, Cb - кучево-дождевые. Подробнее классификацию облаков см. в Атласе облаков (PDF).
T - Температура воздуха - температура, измеренная на высоте 2 м над землей.
Td - Температура точки росы - температура, при понижении до которой содержащийся в воздухе водяной пар достигнет насыщения.
f - Относительная влажность воздуха - влажноcть воздуха, измеренная на высоте 2 м над землей.
Te - Эффективная температура - температура, которую ощущает одетый по сезону человек в тени. Характеристика душности погоды. При расчете учитывается влияние влажности воздуха и скорости ветра на теплоощущения человека.
Tes - Эффективная температура на солнце - температура, которую ощущает человек, с поправкой на солнечный нагрев. Характеристика знойности погоды. Зависит от высоты солнца над горизонтом, облачности и скорости ветра. Ночью, в пасмурную погоду, а также при ветре 12 м/с и более поправка равна нулю.
P - Атмосферное давление - приведенное к уровню моря атмосферное давление.
Po - Атмосферное давление - измеренное на уровне метеостанции атмосферное давление.
Tmin - Минимальная температура - минимум температуры воздуха на высоте 2 м над землей.
Tmax - Максимальная температура - максимум температуры воздуха на высоте 2 м над землей.
R - Количество осадков - Количество выпавших осадков за период времени, мм. При наведении курсора мыши на число - период времени, за который выпало указанное количество осадков.
R24 - Количество осадков - Количество выпавших осадков за 24 часа, мм.
S - Снежный покров - Высота снежного покрова, см. При наведении курсора мыши на число - состояние снежного покрова и степень покрытия местности в баллах.